Location: Cluny
(50.9333°N, 112.8167°W)
Time: 15:44:28
(UTC-06:00)

Amateur Radio Satellites - All Passes

Search period start: 18 September 2014 15:14
Search period end: 19 September 2014 15:14
Location: Cluny, 50.9333°N, 112.8167°W

Satellite Date Start Highest point End Downlink Frequencies (MHz)
Time Altitude Azimuth
Sapphire 18 Sep 15:18:04 15:23:08 39° 320° (NW) 15:28:14 437.095 MHz 1200 baud AX-25 AFSK
AO-27 18 Sep 15:25:43 15:30:35 42° 262° (W) 15:35:31 436.795 MHz FM
JAS-1B 18 Sep 15:33:59 15:42:02 46° 262° (W) 15:48:51 435.800 - 435.900 CW/SSB
AO-7 18 Sep 15:34:49 15:42:38 48° 57° (ENE) 15:50:27 29.400 - 29.500 MHz
RS-15 18 Sep 15:42:52 15:52:37 38° 251° (WSW) 16:02:42 29.354 - 29.394 USB, Beacon 29.352 USB
Uosat F 18 Sep 15:43:07 15:47:17 27° 60° (ENE) 15:51:29 435.120 FM
PCSat 18 Sep 15:46:03 15:50:42 28° 327° (NNW) 15:55:22 145.825 MHz
Oscar 16 18 Sep 15:52:42 15:55:10 13° 275° (W) 15:57:39 437.025 USB, Beacon 2401.1428
Gurwin Techsat 1B 18 Sep 16:11:40 16:16:32 36° 264° (W) 16:21:26 435.225 FM
AO-Echo 18 Sep 16:15:12 16:17:42 14° 273° (W) 16:20:12 ?
ITAMSAT 1 18 Sep 16:33:45 16:36:05 13° 275° (W) 16:38:27 435.822 SSB
Uribyol 2 18 Sep 16:39:15 16:40:45 11° 276° (W) 16:42:15 436.500 FM
TMSAT-1 18 Sep 16:50:23 16:54:37 24° 269° (W) 16:58:53 436.925 FM
MaSat-1 18 Sep 16:58:55 17:02:00 19° 35° (NE) 17:04:47 437.345 MHz
Sapphire 18 Sep 17:04:37 17:08:06 17° 344° (NNW) 17:11:35 437.095 MHz 1200 baud AX-25 AFSK
Uosat F 18 Sep 17:20:58 17:25:50 52° 260° (W) 17:30:45 435.120 FM
AO-7 18 Sep 17:27:20 17:35:24 53° 258° (WSW) 17:43:30 29.400 - 29.500 MHz
PCSat 18 Sep 17:32:53 17:35:58 15° 352° (N) 17:39:04 145.825 MHz
Saudisat 1A 18 Sep 17:35:58 17:38:32 15° 112° (ESE) 17:41:08 436.775 MHz
JAS-2 18 Sep 17:36:18 17:41:07 40° 65° (ENE) 17:45:58 435.800 - 435.900 CW/SSB, 435.910 FM
Hamsat 18 Sep 17:37:14 17:41:05 32° 66° (ENE) 17:44:57 145.90 MHz
OPAL 18 Sep 18:13:04 18:18:08 49° 102° (ESE) 18:23:05 ?
SO-67 18 Sep 18:21:25 18:22:49 12° 60° (ENE) 18:24:12 435.3500 MHz FM
MaSat-1 18 Sep 18:35:15 18:39:25 80° 240° (WSW) 18:42:57 437.345 MHz
Sapphire 18 Sep 18:50:31 18:53:45 16° 11° (N) 18:56:59 437.095 MHz 1200 baud AX-25 AFSK
STRAND 1 18 Sep 18:54:17 18:55:57 11° 84° (E) 18:57:37 ?
Hamsat 18 Sep 19:13:02 19:17:01 34° 264° (W) 19:21:01 145.90 MHz
Saudisat 1A 18 Sep 19:13:05 19:17:31 88° 311° (NW) 19:21:58 436.775 MHz
PCSat 18 Sep 19:17:53 19:21:35 18° 19° (NNE) 19:25:17 145.825 MHz
JAS-2 18 Sep 19:21:42 19:26:24 33° 265° (W) 19:31:05 435.800 - 435.900 CW/SSB, 435.910 FM
AO-7 18 Sep 19:27:56 19:30:17 11° 281° (W) 19:32:38 29.400 - 29.500 MHz
HO-68 18 Sep 19:30:55 19:36:14 23° 47° (NE) 19:41:33 435.675 MHz FM
SO-67 18 Sep 19:51:55 19:55:22 70° 258° (WSW) 19:58:50 435.3500 MHz FM
OPAL 18 Sep 19:52:18 19:56:49 31° 302° (WNW) 20:01:18 ?
KITSAT 1 18 Sep 20:13:11 20:20:39 43° 114° (ESE) 20:28:09 435.175 FM
STRAND 1 18 Sep 20:30:56 20:36:05 72° 104° (ESE) 20:41:13 ?
Sapphire 18 Sep 20:34:02 20:38:55 32° 36° (NE) 20:43:46 437.095 MHz 1200 baud AX-25 AFSK
Oscar 11 18 Sep 20:44:24 20:46:44 14° 56° (NE) 20:49:05 145.825 FM, Beacon 2401.500 USB
Saudisat 1A 18 Sep 20:54:05 20:57:41 24° 333° (NNW) 21:01:18 436.775 MHz
UKube-1 18 Sep 20:58:41 21:02:12 25° 62° (ENE) 21:05:45 145.840 MHz, 145.915 MHz
PCSat 18 Sep 21:01:09 21:06:24 45° 43° (NE) 21:11:36 145.825 MHz
HO-68 18 Sep 21:15:52 21:23:00 81° 69° (ENE) 21:30:11 435.675 MHz FM
FUNcube-1 18 Sep 22:05:38 22:09:37 33° 65° (ENE) 22:13:42 145.950 - 145.970 MHz USB
KITSAT 1 18 Sep 22:07:49 22:15:50 63° 317° (NW) 22:23:54 435.175 FM
STRAND 1 18 Sep 22:10:58 22:14:48 22° 303° (WNW) 22:18:38 ?
Sapphire 18 Sep 22:17:22 22:22:47 68° 238° (WSW) 22:28:10 437.095 MHz 1200 baud AX-25 AFSK
Oscar 11 18 Sep 22:17:55 22:22:18 90° 256° (WSW) 22:26:43 145.825 FM, Beacon 2401.500 USB
UKube-1 18 Sep 22:34:03 22:38:12 45° 261° (W) 22:42:24 145.840 MHz, 145.915 MHz
Saudisat 1A 18 Sep 22:36:22 22:38:45 14° 357° (N) 22:41:09 436.775 MHz
PCSat 18 Sep 22:44:44 22:49:49 41° 244° (WSW) 22:54:52 145.825 MHz
SO-50 18 Sep 22:55:01 22:58:19 20° 114° (ESE) 23:01:41 436.795 FM
HO-68 18 Sep 23:05:52 23:11:30 25° 270° (W) 23:17:11 435.675 MHz FM
AO-40 18 Sep 23:38:28 01:38:21 20° 209° (SSW) 04:50:06 Beacon 2401.320
FUNcube-1 18 Sep 23:41:58 23:45:59 34° 265° (W) 23:50:08 145.950 - 145.970 MHz USB
Oscar 11 18 Sep 23:57:29 23:59:09 12° 274° (W) 00:00:50 145.825 FM, Beacon 2401.500 USB
Sapphire 19 Sep 00:03:01 00:05:13 13° 258° (WSW) 00:07:25 437.095 MHz 1200 baud AX-25 AFSK
KITSAT 1 19 Sep 00:05:52 00:12:53 31° 343° (NNW) 00:19:55 435.175 FM
Saudisat 1A 19 Sep 00:16:42 00:19:57 20° 21° (NNE) 00:23:12 436.775 MHz
SO-50 19 Sep 00:33:52 00:38:24 72° 314° (NW) 00:43:04 436.795 FM
UOSAT-12 19 Sep 00:37:33 00:40:51 19° 113° (ESE) 00:44:11 437.025 FM, 437.400 FM
Oscar 10/S400 19 Sep 01:11:47 02:02:30 37° 211° (SSW) 07:12:22 145.825 - 145.975 CW/USB, Beacon 145.810 USB
Oscar 19 19 Sep 01:39:55 01:41:49 12° 84° (E) 01:43:43 437.125 CW, 437.150 USB
Saudisat 1A 19 Sep 01:55:59 02:00:23 60° 44° (NE) 02:04:45 436.775 MHz
KITSAT 1 19 Sep 02:04:00 02:10:56 30° 13° (NNE) 02:17:49 435.175 FM
UOSAT-12 19 Sep 02:15:48 02:20:29 78° 313° (NW) 02:25:15 437.025 FM, 437.400 FM
SO-50 19 Sep 02:16:06 02:19:45 22° 337° (NNW) 02:23:28 436.795 FM
Oscar 16 19 Sep 02:16:51 02:21:08 25° 92° (E) 02:25:22 437.025 USB, Beacon 2401.1428
AO-Echo 19 Sep 02:36:07 02:39:27 18° 90° (E) 02:42:51 ?
Gurwin Techsat 1B 19 Sep 02:45:40 02:46:15 10° 82° (E) 02:46:49 435.225 FM
ITAMSAT 1 19 Sep 02:58:44 03:03:03 26° 93° (E) 03:07:21 435.822 SSB
Uribyol 2 19 Sep 03:02:59 03:07:32 29° 94° (E) 03:12:03 436.500 FM
JAS-1B 19 Sep 03:13:36 03:19:02 37° 96° (E) 03:24:16 435.800 - 435.900 CW/SSB
Oscar 19 19 Sep 03:16:54 03:22:07 74° 104° (ESE) 03:27:15 437.125 CW, 437.150 USB
TMSAT-1 19 Sep 03:20:54 03:24:11 16° 87° (E) 03:27:26 436.925 FM
AO-27 19 Sep 03:33:09 03:38:13 48° 99° (E) 03:43:15 436.795 MHz FM
Saudisat 1A 19 Sep 03:36:06 03:39:40 24° 243° (WSW) 03:43:12 436.775 MHz
ISS 19 Sep 03:37:16 03:39:09 14° 139° (SE) 03:41:01 145.800 FM
OPAL 19 Sep 03:55:14 03:59:37 28° 57° (ENE) 04:04:01 ?
Oscar 16 19 Sep 03:55:45 04:00:50 55° 292° (WNW) 04:05:52 437.025 USB, Beacon 2401.1428
UOSAT-12 19 Sep 03:57:31 04:01:21 24° 335° (NNW) 04:05:13 437.025 FM, 437.400 FM
SO-50 19 Sep 03:59:07 04:01:57 16° 1° (N) 04:04:49 436.795 FM
KITSAT 1 19 Sep 04:00:13 04:08:11 56° 40° (NE) 04:16:05 435.175 FM
RS-15 19 Sep 04:02:30 04:10:54 26° 103° (ESE) 04:19:13 29.354 - 29.394 USB, Beacon 29.352 USB
AO-Echo 19 Sep 04:13:56 04:18:43 69° 288° (WNW) 04:23:36 ?
Gurwin Techsat 1B 19 Sep 04:22:00 04:27:18 63° 102° (ESE) 04:32:34 435.225 FM
ITAMSAT 1 19 Sep 04:37:47 04:42:52 55° 292° (WNW) 04:47:57 435.822 SSB
Uribyol 2 19 Sep 04:42:13 04:47:14 49° 293° (WNW) 04:52:15 436.500 FM
Oscar 19 19 Sep 04:57:06 05:00:57 21° 303° (WNW) 05:04:46 437.125 CW, 437.150 USB
TMSAT-1 19 Sep 04:59:29 05:04:50 87° 286° (WNW) 05:10:09 436.925 FM
JAS-1B 19 Sep 05:04:23 05:09:52 40° 298° (WNW) 05:15:05 435.800 - 435.900 CW/SSB
ISS 19 Sep 05:12:03 05:15:20 55° 157° (SSE) 05:18:36 145.800 FM
AO-27 19 Sep 05:13:02 05:17:33 31° 299° (WNW) 05:22:04 436.795 MHz FM
AO-7 19 Sep 05:22:45 05:30:31 42° 98° (E) 05:38:13 29.400 - 29.500 MHz
Uosat F 19 Sep 05:23:32 05:28:05 33° 96° (E) 05:32:36 435.120 FM
OPAL 19 Sep 05:33:07 05:38:13 56° 257° (WSW) 05:43:23 ?
Oscar 16 19 Sep 05:37:21 05:39:08 12° 312° (NW) 05:40:54 437.025 USB, Beacon 2401.1428
SO-50 19 Sep 05:40:12 05:44:05 24° 26° (NNE) 05:48:02 436.795 FM
UOSAT-12 19 Sep 05:40:13 05:43:06 16° 359° (N) 05:45:59 437.025 FM, 437.400 FM
AO-Echo 19 Sep 05:54:38 05:56:42 13° 308° (NW) 05:58:48 ?
KITSAT 1 19 Sep 05:55:53 06:03:36 51° 244° (WSW) 06:11:17 435.175 FM
Gurwin Techsat 1B 19 Sep 06:02:38 06:06:54 25° 302° (WNW) 06:11:09 435.225 FM
RS-15 19 Sep 06:10:37 06:21:37 83° 127° (SE) 06:32:36 29.354 - 29.394 USB, Beacon 29.352 USB
STRAND 1 19 Sep 06:13:55 06:18:16 29° 61° (ENE) 06:22:38 ?
ITAMSAT 1 19 Sep 06:19:30 06:21:19 12° 312° (NW) 06:23:08 435.822 SSB
JAS-2 19 Sep 06:23:11 06:27:59 25° 92° (E) 06:33:12 435.800 - 435.900 CW/SSB, 435.910 FM
Uribyol 2 19 Sep 06:24:33 06:25:34 11° 314° (NW) 06:26:34 436.500 FM
TMSAT-1 19 Sep 06:40:36 06:44:03 18° 306° (NW) 06:47:30 436.925 FM
ISS 19 Sep 06:48:41 06:52:01 77° 357° (N) 06:55:22 145.800 FM
Hamsat 19 Sep 06:53:32 06:57:21 30° 95° (E) 07:01:06 145.90 MHz
Uosat F 19 Sep 07:02:16 07:06:58 41° 295° (WNW) 07:11:39 435.120 FM
AO-7 19 Sep 07:15:34 07:23:38 59° 299° (WNW) 07:31:41 29.400 - 29.500 MHz
SO-50 19 Sep 07:20:33 07:25:21 80° 47° (NE) 07:30:13 436.795 FM
UOSAT-12 19 Sep 07:21:04 07:24:52 23° 24° (NNE) 07:28:39 437.025 FM, 437.400 FM
STRAND 1 19 Sep 07:52:20 07:57:15 49° 260° (W) 08:02:14 ?
KITSAT 1 19 Sep 07:55:17 07:57:04 11° 265° (W) 07:58:51 435.175 FM
JAS-2 19 Sep 08:07:44 08:13:29 68° 289° (WNW) 08:19:58 435.800 - 435.900 CW/SSB, 435.910 FM
RS-15 19 Sep 08:24:34 08:35:03 48° 336° (NNW) 08:45:40 29.354 - 29.394 USB, Beacon 29.352 USB
ISS 19 Sep 08:25:27 08:28:47 73° 197° (SSW) 08:32:07 145.800 FM
MaSat-1 19 Sep 08:26:47 08:30:02 18° 104° (ESE) 08:33:14 437.345 MHz
Hamsat 19 Sep 08:29:29 08:33:20 33° 294° (WNW) 08:37:08 145.90 MHz
HO-68 19 Sep 08:41:50 08:43:10 11° 79° (E) 08:44:30 435.675 MHz FM
SO-67 19 Sep 08:43:31 08:46:59 69° 102° (ESE) 08:50:25 435.3500 MHz FM
UOSAT-12 19 Sep 09:01:02 09:05:48 72° 46° (NE) 09:10:30 437.025 FM, 437.400 FM
SO-50 19 Sep 09:02:00 09:05:25 20° 247° (WSW) 09:08:53 436.795 FM
AO-7 19 Sep 09:09:19 09:14:51 20° 323° (NW) 09:20:23 29.400 - 29.500 MHz
JAS-2 19 Sep 09:54:29 09:57:47 16° 309° (NW) 10:01:16 435.800 - 435.900 CW/SSB, 435.910 FM
MaSat-1 19 Sep 10:01:12 10:06:16 86° 302° (WNW) 10:11:08 437.345 MHz
Oscar 11 19 Sep 10:02:26 10:04:12 12° 86° (E) 10:05:58 145.825 FM, Beacon 2401.500 USB
ISS 19 Sep 10:02:32 10:05:09 21° 216° (SW) 10:07:45 145.800 FM
UKube-1 19 Sep 10:17:35 10:20:57 21° 92° (E) 10:24:17 145.840 MHz, 145.915 MHz
SO-67 19 Sep 10:18:07 10:19:32 12° 300° (WNW) 10:20:57 435.3500 MHz FM
HO-68 19 Sep 10:25:35 10:32:36 53° 101° (E) 10:39:35 435.675 MHz FM
RS-15 19 Sep 10:40:12 10:50:24 41° 10° (N) 11:00:49 29.354 - 29.394 USB, Beacon 29.352 USB
UOSAT-12 19 Sep 10:41:57 10:45:31 21° 246° (WSW) 10:49:02 437.025 FM, 437.400 FM
FUNcube-1 19 Sep 11:25:37 11:29:53 35° 96° (E) 11:34:06 145.950 - 145.970 MHz USB
Oscar 11 19 Sep 11:36:39 11:41:03 88° 285° (WNW) 11:45:23 145.825 FM, Beacon 2401.500 USB
MaSat-1 19 Sep 11:39:52 11:43:40 21° 322° (NW) 11:47:19 437.345 MHz
PCSat 19 Sep 11:51:55 11:53:44 12° 102° (ESE) 11:55:33 145.825 MHz
UKube-1 19 Sep 11:53:12 11:57:26 50° 291° (WNW) 12:01:38 145.840 MHz, 145.915 MHz
Oscar 16 19 Sep 12:03:09 12:05:16 13° 49° (NE) 12:07:24 437.025 USB, Beacon 2401.1428
HO-68 19 Sep 12:13:35 12:20:12 42° 302° (WNW) 12:26:47 435.675 MHz FM
JAS-1B 19 Sep 12:16:16 12:20:45 17° 47° (NE) 12:24:51 435.800 - 435.900 CW/SSB
ITAMSAT 1 19 Sep 12:45:49 12:48:07 13° 49° (NE) 12:50:25 435.822 SSB
Uribyol 2 19 Sep 12:49:33 12:52:17 15° 51° (NE) 12:55:02 436.500 FM
AO-7 19 Sep 12:51:27 12:53:32 11° 18° (NNE) 12:55:36 29.400 - 29.500 MHz
RS-15 19 Sep 12:53:54 13:04:56 69° 41° (NE) 13:16:19 29.354 - 29.394 USB, Beacon 29.352 USB
Oscar 19 19 Sep 13:00:33 13:05:02 30° 61° (ENE) 13:09:32 437.125 CW, 437.150 USB
FUNcube-1 19 Sep 13:02:04 13:06:15 34° 295° (WNW) 13:10:23 145.950 - 145.970 MHz USB
Sapphire 19 Sep 13:04:11 13:09:10 39° 115° (ESE) 13:14:12 437.095 MHz 1200 baud AX-25 AFSK
Oscar 11 19 Sep 13:14:21 13:16:35 14° 304° (NW) 13:18:48 145.825 FM, Beacon 2401.500 USB
AO-27 19 Sep 13:18:42 13:22:37 22° 57° (ENE) 13:26:33 436.795 MHz FM
PCSat 19 Sep 13:30:46 13:36:07 65° 121° (ESE) 13:41:30 145.825 MHz
Oscar 16 19 Sep 13:38:32 13:43:38 59° 69° (ENE) 13:48:46 437.025 USB, Beacon 2401.1428
AO-Echo 19 Sep 13:53:53 13:58:15 39° 66° (ENE) 14:02:37 ?
JAS-1B 19 Sep 14:02:14 14:10:20 61° 68° (ENE) 14:17:06 435.800 - 435.900 CW/SSB
HO-68 19 Sep 14:03:10 14:06:06 13° 325° (NW) 14:09:02 435.675 MHz FM
Gurwin Techsat 1B 19 Sep 14:09:33 14:14:02 29° 60° (ENE) 14:18:31 435.225 FM
ITAMSAT 1 19 Sep 14:21:34 14:26:39 62° 70° (ENE) 14:31:47 435.822 SSB
Uribyol 2 19 Sep 14:25:45 14:30:54 71° 71° (ENE) 14:36:05 436.500 FM
AO-7 19 Sep 14:37:00 14:43:33 27° 44° (NE) 14:50:05 29.400 - 29.500 MHz
Oscar 19 19 Sep 14:39:10 14:44:12 49° 261° (W) 14:49:16 437.125 CW, 437.150 USB
TMSAT-1 19 Sep 14:46:08 14:51:02 41° 65° (ENE) 14:55:58 436.925 FM
Sapphire 19 Sep 14:47:20 14:52:33 47° 316° (NW) 14:57:49 437.095 MHz 1200 baud AX-25 AFSK
AO-27 19 Sep 14:56:31 15:01:40 71° 257° (WSW) 15:06:53 436.795 MHz FM
Uosat F 19 Sep 15:05:53 15:08:39 15° 52° (NE) 15:11:24 435.120 FM
